Location: Ostrava
(49.8330°N, 18.2830°E)
Time: 03:29:22
(UTC+02:00)

Iridium 39 - Visible Passes

Search period start: 01 August 2015 00:00
Search period end: 11 August 2015 00:00
Orbit: 776 x 779 km, 86.4° (Epoch: 31 July)

Date Brightness Start Highest point End Pass type
(mag) Time Alt. Az. Time Alt. Az. Time Alt. Az.
01 Aug 6.3 01:27:26 42° SW 01:28:52 56° W 01:34:01 10° N visible
01 Aug 8.1 23:13:34 12° E 23:15:16 14° ENE 23:17:54 10° NE visible
02 Aug 5.9 00:54:02 54° S 00:55:16 87° E 01:00:32 10° N visible
02 Aug 8.1 02:34:30 12° W 02:36:52 15° WNW 02:39:49 10° NNW visible
03 Aug 6.4 00:20:38 43° SE 00:21:48 51° E 00:26:53 10° NNE visible
03 Aug 7.5 02:01:06 21° WSW 02:02:54 25° WNW 02:07:08 10° NNW visible
03 Aug 7.1 23:47:14 27° ESE 23:48:26 31° E 23:53:00 10° NNE visible
04 Aug 6.8 01:27:42 34° WSW 01:29:04 41° WNW 01:34:00 10° N visible
04 Aug 7.7 23:13:49 17° E 23:15:09 19° ENE 23:18:47 10° NNE visible
05 Aug 6.1 00:54:18 53° SW 00:55:23 69° W 01:00:38 10° N visible
05 Aug 8.3 02:35:38 10° W 02:37:19 11° WNW 02:38:44 10° NW visible
05 Aug 8.2 22:40:49 10° E 22:41:59 11° ENE 22:43:27 10° NE visible
06 Aug 6.0 00:20:52 56° SSE 00:21:51 71° E 00:27:04 10° N visible
06 Aug 7.9 02:01:21 16° W 02:03:15 19° WNW 02:06:48 10° NNW visible
06 Aug 6.6 23:47:27 38° ESE 23:48:25 42° E 23:53:20 10° NNE visible
07 Aug 7.3 01:27:55 26° WSW 01:29:19 30° WNW 01:33:53 10° NNW visible
07 Aug 7.3 23:14:01 23° E 23:15:05 25° E 23:19:20 10° NNE visible
08 Aug 6.5 00:54:30 43° WSW 00:55:33 50° W 01:00:39 10° N visible
08 Aug 7.9 22:40:35 14° E 22:41:51 15° ENE 22:44:53 10° NE visible
09 Aug 5.9 00:21:04 63° SSW 00:21:56 85° W 00:27:12 10° N visible
09 Aug 8.2 02:01:32 11° W 02:03:39 14° WNW 02:06:11 10° NW visible
09 Aug 6.2 23:47:37 51° SE 23:48:26 57° E 23:53:34 10° N visible
10 Aug 7.7 01:28:05 20° W 01:29:38 23° WNW 01:33:39 10° NNW visible
10 Aug 6.9 23:14:10 32° ESE 23:15:02 34° E 23:19:44 10° NNE visible
